sat.trackr.live / text

‹ back to catalog

STARLINK-31589

NORAD 59654 · 2024-084A

PAYLOAD ACTIVE UNKNOWN

§ Identity

Operator
Country
US
Launch date
2024-05-06
Launch site
AFETR
Launch vehicle
Mass (kg)
RCS (m²)

Purposes: comms

External: N2YO · Heavens-Above · Gunter

§ Orbital elements

Epoch: 2026-05-24T20:31:34.023360Z

Period
94.27 min
Inclination
43.0021°
Eccentricity
0.0001382
Mean motion
15.27575174 rev/d
Perigee alt
482.1 km
Apogee alt
484.0 km
Semi-major
6,861.2 km
B*
1.0057e-5
RAAN
331.4910°
Arg perigee
266.4169°
Mean anomaly
93.6525°
Rev number
11,604

§ Raw data

STARLINK-315891 59654U 24084A   26144.85525490  .00000015  00000+0  10057-4 0  99942 59654  43.0021 331.4910 0001382 266.4169  93.6525 15.27575174116046

JSON: /api/v1/satellites/59654 · /tle

For live sub-satellite position, see the globe view (requires WebGL).

§ Visibility from observer

Set your observer location to see the next 7 days of passes ≥ 10°. The values pass through the URL so the page stays shareable.

No JS? Fill the form by hand. The geolocation button needs JavaScript.